Flag for Netherlands Weather past 2 weeks in Zaandam, Netherlands

Now
48 °F

Passing clouds.


Feels Like: 43 °F
Forecast: 37 / 50 °F
Wind: 12 mph from North

Location: Amsterdam Schiphol Airport

Current Time: Apr 27, 2015 at 11:39:48 AM

Latest Report: Apr 27, 2015 at 10:55 AM


Visibility: N/A

Pressure: 29.80 "Hg

Humidity: 66%

Dew point: 37 °F

Location of ZaandamLocation

Historic Weather in Zaandam — Graph

°F

Zaandam temperature yesterday

Maximum temperature yesterday: 52 °F (at 12:55 AM)
Minimum temperature yesterday: 46 °F (at 10:55 PM)
Average temperature yesterday: 50 °F

Past Weeks' High & Low Weather Summary

 TemperatureHumidityPressure
High70 °F (Apr 15, 3:25 PM)100% (Apr 21, 4:55 AM)30.51 "Hg (Apr 21, 4:55 AM)
Low36 °F (Apr 19, 4:55 AM)34% (Apr 24, 4:55 PM)29.68 "Hg (Apr 25, 5:25 PM)
Average50 °F74%30.14 "Hg
* Reported Apr 12 10:25 AM — Apr 27 10:25 AM, Zaandam, Weather by CustomWeather, © 2015

Note: Actual official high and low records may vary slightly from our data, if they occured in-between our weather recording intervals... More about our weather records

Advertising

Zaandam weather history for previous 24 hours

 ConditionsComfort  
Time TempWeatherWind HumidityBarometerVisibility
10:25 AM
Mon, Apr 27
50 °FPassing clouds.13 mph62%29.80 "HgN/A
9:55 AM50 °FPassing clouds.10 mph62%29.80 "HgN/A
9:25 AM48 °FPassing clouds.13 mph66%29.80 "HgN/A
8:55 AM46 °FPassing clouds.10 mph71%29.77 "HgN/A
8:25 AM46 °FPassing clouds.9 mph71%29.77 "HgN/A
7:55 AM45 °FPassing clouds.7 mph81%29.77 "HgN/A
7:25 AM41 °FPassing clouds.7 mph87%29.77 "HgN/A
6:55 AM39 °FPassing clouds.6 mph87%29.74 "HgN/A
6:25 AM37 °FPassing clouds.6 mph93%29.74 "HgN/A
5:55 AM39 °FPassing clouds.6 mph87%29.74 "HgN/A
5:25 AM39 °FClear.6 mph87%29.74 "Hg10 mi
4:55 AM39 °FClear.7 mph87%29.74 "Hg10 mi
4:25 AM43 °FPassing clouds.6 mph81%29.74 "HgN/A
3:55 AM43 °FPassing clouds.7 mph81%29.74 "HgN/A
3:25 AM43 °FPassing clouds.9 mph81%29.74 "HgN/A
2:55 AM45 °FPassing clouds.9 mph81%29.74 "HgN/A
2:25 AM45 °FPassing clouds.10 mph81%29.74 "HgN/A
1:55 AM46 °FPassing clouds.9 mph76%29.74 "HgN/A
1:25 AM46 °FPassing clouds.12 mph76%29.74 "HgN/A
12:55 AM46 °FPassing clouds.10 mph76%29.74 "HgN/A
12:25 AM46 °FPassing clouds.10 mph82%29.74 "HgN/A
11:55 PM
Sun, Apr 26
46 °FPassing clouds.12 mph82%29.74 "HgN/A
11:25 PM46 °FPassing clouds.12 mph82%29.74 "HgN/A
10:55 PM46 °FPassing clouds.9 mph82%29.74 "HgN/A
10:25 PM48 °FPassing clouds.9 mph82%29.74 "HgN/A
9:55 PM48 °FBroken clouds.8 mph82%29.74 "HgN/A
9:25 PM48 °FBroken clouds.9 mph82%29.71 "HgN/A
8:55 PM48 °FPartly sunny.10 mph82%29.71 "HgN/A
8:25 PM48 °FPartly sunny.9 mph82%29.71 "HgN/A
7:55 PM48 °FPartly sunny.8 mph87%29.71 "HgN/A
7:25 PM50 °FMostly cloudy.9 mph82%29.71 "HgN/A
6:55 PM50 °FMostly cloudy.10 mph82%29.71 "HgN/A
6:25 PM50 °FMostly cloudy.10 mph82%29.71 "HgN/A
5:55 PM50 °FMostly cloudy.9 mph82%29.71 "HgN/A
5:25 PM50 °FMostly cloudy.9 mph82%29.71 "HgN/A
4:55 PM50 °FCloudy.9 mph88%29.71 "HgN/A
4:25 PM50 °FMostly cloudy.8 mph88%29.74 "HgN/A
3:55 PM50 °FDrizzle. Mostly cloudy.8 mph88%29.74 "HgN/A
3:25 PM50 °FDrizzle. Broken clouds.9 mph88%29.74 "HgN/A
2:55 PM50 °FBroken clouds.8 mph88%29.74 "HgN/A
2:25 PM50 °FBroken clouds.8 mph88%29.74 "HgN/A
1:55 PM52 °FBroken clouds.9 mph82%29.74 "HgN/A
1:25 PM50 °FDrizzle. Broken clouds.7 mph94%29.74 "HgN/A
12:55 PM50 °FPartly sunny.8 mph88%29.74 "HgN/A
12:25 PM50 °FBroken clouds.8 mph94%29.74 "HgN/A
11:55 AM50 °FPartly sunny.7 mph94%29.74 "HgN/A
11:25 AM50 °FBroken clouds.7 mph94%29.74 "HgN/A
Weather by CustomWeather, © 2015

See weather overviewHow to use our weather pages